Weather History for Ciudad Victoria, Mexico

Change the Weather History Date:

Sunday, March 10, 2013

  Actual Average Record
Temperature  
Mean Temperature 72 °F -  
Max Temperature 86 °F 86 °F 98 °F (2006)
Min Temperature 59 °F 63 °F 48 °F (2012)
Cooling Degree Days 8    
Growing Degree Days 22 (Base 50)    
Moisture  
Dew Point 42 °F    
Average Humidity 40    
Maximum Humidity 100    
Minimum Humidity 10    
Precipitation  
Precipitation 0.00 in - - ()
Sea Level Pressure  
Sea Level Pressure 29.82 in    
Wind  
Wind Speed 8 mph ()    
Max Wind Speed 17 mph    
Max Gust Speed 28 mph    
Visibility 5.8 miles    
Events      
Averages and records for this station are not official NWS values.
T = Trace of Precipitation, MM = Missing Value Source: Averaged Metar Reports

Daily Weather History Graph

Daily Weather History Graph

Search for Another Location

Airport:

Trip Planner

Search our weather history database for the weather conditions in past years. The results will help you decide how hot, cold, wet, or windy it might be!

Date:

Astronomy

Mar. 10, 2013 Rise Set
Actual Time 6:49 AM CST 6:43 PM CST
Civil Twilight 6:26 AM CST 7:05 PM CST
Nautical Twilight 6:00 AM CST 7:31 PM CST
Astronomical Twilight 5:34 AM CST 7:58 PM CST
Moon 5:46 AM CST (3/10) 5:53 PM CST (3/10)
Length of Visible Light 12h 38m
Length of Day
11h 53m
Waning Crescent, 1% of the Moon is Illuminated
Mar 10
Waning Crescent
Mar 11
New
Mar 19
First Quarter
Mar 27
Full
Apr 2
Last Quarter

Hourly Weather History & Observations

Time (CST) Temp. Dew Point Humidity Pressure Visibility Wind Dir Wind Speed Gust Speed Precip Events Conditions
2:40 AM 69.8 °F 64.4 °F 83% 29.68 in 6.0 mi South 16.1 mph 27.6 mph N/A   Clear
2:50 AM 64 °F 64 °F 100% 29.69 in 4 mi Calm Calm - -  
4:41 AM 71.6 °F 62.6 °F 73% 29.66 in 6.0 mi SE 9.2 mph - N/A   Clear
5:40 AM 68.0 °F 60.8 °F 78% 29.69 in 4.0 mi NW 2.3 mph - N/A   Clear
5:45 AM 63 °F 62 °F 96% 29.73 in 4 mi Calm Calm - -  
6:40 AM 64.4 °F 62.6 °F 94% 29.73 in 4.0 mi NNW 2.3 mph - N/A   Scattered Clouds
7:45 AM 66.2 °F 64.4 °F 94% 29.80 in 4.0 mi NW 11.5 mph 23.0 mph N/A   Scattered Clouds
8:44 AM 71.6 °F 64.4 °F 78% 29.87 in 4.0 mi NW 11.5 mph 23.0 mph N/A   Overcast
8:50 AM 73 °F 65 °F 69% 29.90 in 6 mi NNW 15.7 mph - -   Partly Cloudy
9:40 AM 77.0 °F 37.4 °F 24% 29.88 in 4.0 mi NNW 11.5 mph 23.0 mph N/A   Partly Cloudy
10:41 AM 78.8 °F 39.2 °F 24% 29.87 in 4.0 mi NNW 16.1 mph 27.6 mph N/A   Clear
11:41 AM 82.4 °F 28.4 °F 14% 29.85 in 6.0 mi NNW 11.5 mph 23.0 mph N/A   Partly Cloudy
11:50 AM 81 °F 48 °F 21% 29.90 in 6 mi NNW 13.4 mph - -  
12:40 PM 84.2 °F 30.2 °F 14% 29.82 in 6.0 mi NNW 12.7 mph 24.2 mph N/A   Partly Cloudy
1:44 PM 86.0 °F 28.4 °F 12% 29.80 in 8.0 mi North 13.8 mph - N/A   Clear
2:41 PM 86.0 °F 28.4 °F 12% 29.79 in 8.0 mi NNW 6.9 mph - N/A   Partly Cloudy
2:50 PM 85 °F 41 °F 13% 29.83 in 6 mi NNW 8.9 mph - -  
3:40 PM 86.0 °F 24.8 °F 11% 29.77 in 8.0 mi NNW 10.4 mph - N/A   Scattered Clouds
4:43 PM 86.0 °F 23.0 °F 10% 29.77 in 8.0 mi North 11.5 mph - N/A   Scattered Clouds
5:45 PM 84.2 °F 23.0 °F 11% 29.79 in 8.0 mi NNW 17.3 mph - N/A   Mostly Cloudy
5:50 PM 82 °F 34 °F 10% 29.82 in 6 mi NNW 8.9 mph - -  
6:40 PM 78.8 °F 23.0 °F 13% 29.84 in 8.0 mi NW 10.4 mph - N/A   Scattered Clouds
7:42 PM 73.4 °F 23.0 °F 15% 29.88 in 8.0 mi NNW 6.9 mph - N/A   Clear
8:42 PM 71.6 °F 24.8 °F 17% 29.94 in 8.0 mi NNW 9.2 mph - N/A   Clear
8:45 PM 74 °F 32 °F 12% 29.93 in 4 mi North 6.7 mph - -  
11:45 PM 65 °F 41 °F 30% 30.07 in 4 mi North 2.2 mph - -